{"data":{"norad_id":41473,"intl_designator":"2016-029A","name":"YAOGAN-30 01","alt_names":[],"object_type":"PAYLOAD","status":"ACTIVE","operator":null,"country":"PRC","launch_date":"2016-05-15","launch_site_code":"JSC","launch_vehicle":null,"mission":null,"orbit_class":"UNKNOWN","rcs_meters":3.7059,"size_class":null,"mass_kg":null,"dimensions":null,"purposes":[],"wikipedia_slug":null,"has_3d_model":false,"image_url":null,"decayed_at":null,"tle_current":{"epoch":"2026-09-20T04:21:09.027072Z","epoch_age_seconds":56679,"freshness":"FRESH","line1":"1 41473U 16029A   26263.18135448  .00000587  00000+0  91968-4 0  9996","line2":"2 41473  97.8920 310.9735 0014346 287.3488  72.6153 14.76246805557680","mean_motion":14.76246805,"eccentricity":0.0014346,"inclination_deg":97.892,"raan_deg":310.9735,"arg_perigee_deg":287.3488,"mean_anomaly_deg":72.6153,"bstar":9.1968e-5,"rev_number":55768,"period_min":97.544664965422,"perigee_km":631.12630463215,"apogee_km":651.26617556464,"semimajor_km":7019.3332400984,"source":"CELESTRAK","updated_at":"2026-09-20T09:00:14.126020Z"}}}